Vertical_Velocity
1 4 -7 -11 -6 -1 -2 -1 -1 -1 -1 0 -2 -0 -3 -5 -1 -2 -6 -7 -4 -1 1 -0 3 1 1 -2 -0 -0 -1 -1 -2 -2 0 5 -4 -0 -1 -2 -1 -1 2 6
11 -6 -7 -1 2 1 0 -1 0 -2 -0 0 -1 -5 -2 -0 -4 4 4 -2 -2 -1 -7 -1 0 0 -3 3 0 1 4 -0 -1 1 3 1 -1 -1 5 3 -0 -1 -3 -2
-5 -7 3 0 3 6 -0 -1 -1 -3 -1 -2 0 -4 1 0 -0 -6 -1 5 1 4 0 2 4 1 4 3 3 2 2 0 0 3 2 5 12 8 9 -2 -1 -6 -3 -1
-5 -11 -0 3 -1 -1 7 -3 1 2 2 -3 -0 -4 -2 -0 1 -3 -3 -3 -1 2 2 4 2 1 1 -0 -2 -1 4 7 4 2 4 -3 -4 -8 -15 -1 10 0 1 -1
-21 1 4 4 -18 1 -9 -2 -3 -1 0 3 2 1 -3 -1 -3 -3 -3 -1 -1 5 4 3 3 2 0 -1 0 3 2 4 2 2 2 3 2 9 6 4 5 2 3 1
-10 1 -2 -14 -1 -4 -2 -3 -0 1 -0 6 -5 -3 -0 0 3 -3 -4 -1 0 -1 6 3 1 2 3 3 2 2 3 4 4 2 2 -2 1 4 3 1 -3 1 3 6
0 -1 2 -3 2 7 5 4 3 10 10 -7 -0 6 3 0 0 3 2 -1 1 3 6 4 -1 -2 2 2 4 3 4 2 1 1 1 2 3 4 3 4 4 -0 -2 -5
3 15 4 -0 -0 -10 -5 -9 -6 -6 -2 -1 0 -0 7 1 0 1 4 4 4 4 3 5 6 2 1 5 4 3 1 1 1 3 1 -0 -3 -4 -3 -1 3 7 5 -6
-1 2 -3 -1 1 3 4 6 -3 -4 -0 -2 -2 6 3 -0 -2 -2 -0 -1 -0 0 -1 0 6 6 2 1 6 6 1 2 -5 -2 -0 -3 -4 -0 2 1 2 -1 6 1
-0 -1 2 -2 -4 -5 2 2 8 3 0 2 4 1 2 -2 0 -1 -4 -1 -2 0 -3 -3 1 5 7 2 0 5 7 3 1 -1 -3 -2 -4 -0 -2 -4 -6 -3 7 6
2 3 -6 -7 -2 7 -7 1 -3 2 -0 -4 -1 6 4 4 4 3 2 1 1 0 -0 1 -1 4 7 10 2 -1 4 3 3 0 -0 -2 1 -0 0 3 3 0 4 0
-0 1 0 6 4 1 2 2 0 1 2 0 -2 10 2 3 3 2 1 0 -0 4 -0 1 1 1 2 3 3 -3 -0 5 3 5 -0 -2 -4 -0 -3 -1 5 3 -1 2
-3 0 -0 7 3 -2 -3 -1 1 0 -1 2 0 8 1 -3 -4 -2 1 -1 -1 -1 1 1 -1 0 -2 1 2 2 -2 0 2 3 4 -1 -1 2 -1 -2 -2 -2 8 3
-3 -1 -0 3 10 -2 -4 -2 -0 1 -3 1 3 2 -8 -4 -0 -6 -6 -2 -2 1 0 0 -0 -0 1 1 -0 2 2 -0 1 2 4 5 3 6 1 -6 -2 -5 -9 -2
-4 -2 -3 4 1 -6 4 3 1 -4 7 -2 1 -1 5 4 5 3 4 -1 -2 -3 -3 0 -2 -2 -0 -1 1 4 3 0 -1 5 5 2 -1 3 10 1 -3 -5 -5 5
-2 -2 -1 4 3 -4 -3 -0 -0 -0 -1 -2 -2 2 8 -2 -3 -6 -1 -0 -1 -2 -3 -3 1 1 -2 -2 -2 -1 1 4 -4 2 2 5 -1 -0 0 10 8 1 8 3
-0 -1 -1 2 -1 -0 -15 11 2 1 -0 3 -1 6 -0 -9 -3 0 -6 2 2 -2 -0 -5 -2 -3 -0 -2 -2 -3 -2 3 4 -1 6 6 4 3 1 1 -5 -1 3 9
0 -0 -1 1 -2 -9 -1 1 4 2 3 -1 -6 -2 4 4 -6 -7 9 7 -4 -4 -6 -5 -1 -4 -1 -2 -2 -1 -3 2 7 -1 2 2 2 2 3 -1 4 3 -3 -2
-1 -1 -2 -5 -0 3 -7 -5 3 5 2 5 5 -3 -3 -4 1 -1 -6 4 -0 -1 -8 -7 -0 -6 -4 -5 -1 -2 -4 1 1 4 -2 -1 -3 3 2 4 1 3 10 -2
-4 -3 -7 -2 -4 -1 -3 -4 4 -1 4 3 5 -0 2 -4 -3 -13 0 5 -5 -0 1 0 -8 -2 -6 3 -1 -3 -2 -3 4 1 4 -1 -5 1 2 5 0 3 7 8
-4 -3 -0 0 -0 3 2 1 2 -14 -3 -4 6 3 1 4 13 -9 -7 -4 3 2 -3 -2 -7 8 -3 -1 1 -4 -1 -3 7 -3 3 3 0 -1 1 1 4 2 -0 2
2 -1 1 -3 -4 -5 -2 -7 -12 3 -9 4 -2 0 0 -1 -4 1 -5 -6 -2 1 -7 2 -2 -3 0 2 -2 -3 1 -2 4 2 -3 2 1 -2 2 1 1 5 2 1
-9 -1 -3 -5 4 2 2 1 2 4 7 -3 5 0 8 5 1 4 -1 -1 -0 6 -0 -2 3 -0 -1 5 2 2 2 -1 2 6 -7 -5 0 -0 -2 -1 -1 2 3 5
-4 1 -2 -3 -3 -1 0 4 4 3 4 -0 4 3 1 4 0 2 -1 -0 -3 -0 -2 -1 5 4 -4 1 1 7 6 -2 1 18 -6 -4 -1 -2 1 -1 1 0 0 4
-0 -4 1 -2 -3 -7 2 -2 2 -4 1 1 2 5 6 3 2 6 2 -0 1 -2 -0 1 -0 4 1 -3 3 -6 15 -0 0 8 -4 -4 2 -1 1 3 -0 3 4 6
0 -2 -2 -5 2 3 -6 2 2 -1 -4 -2 -0 -5 -4 2 1 -0 2 5 9 6 -1 -1 3 0 -1 -0 5 2 -2 11 9 8 3 -6 -8 0 1 1 -5 -0 4 1
Height
1444 1449 1428 1431 1438 1450 1453 1462 1464 1466 1462 1463 1463 1464 1462 1460 1458 1456 1454 1450 1448 1447 1450 1451 1454 1457 1457 1457 1458 1460 1464 1468 1473 1477 1482 1487 1491 1497 1501 1506 1511 1515 1519 1522
1442 1425 1429 1438 1443 1447 1455 1460 1463 1465 1463 1464 1462 1456 1457 1456 1453 1452 1452 1447 1442 1439 1439 1441 1443 1447 1447 1448 1449 1452 1456 1461 1466 1471 1477 1481 1487 1492 1497 1501 1505 1510 1514 1518
1422 1419 1425 1433 1439 1442 1443 1447 1458 1462 1464 1463 1464 1450 1450 1447 1451 1454 1451 1445 1438 1434 1432 1433 1435 1437 1438 1440 1442 1445 1449 1455 1460 1466 1470 1476 1482 1487 1491 1495 1499 1503 1507 1512
1420 1417 1422 1428 1431 1435 1435 1439 1448 1454 1466 1470 1463 1447 1453 1449 1451 1454 1452 1447 1440 1433 1428 1428 1428 1431 1432 1434 1436 1440 1445 1451 1456 1460 1465 1470 1474 1478 1484 1488 1492 1496 1501 1505
1404 1410 1418 1422 1419 1430 1430 1436 1446 1454 1461 1465 1460 1460 1449 1458 1458 1460 1457 1451 1444 1436 1429 1426 1426 1427 1427 1429 1432 1435 1441 1447 1452 1457 1462 1466 1470 1475 1478 1483 1487 1491 1493 1498
1402 1407 1411 1412 1419 1424 1433 1442 1449 1456 1459 1457 1452 1452 1460 1471 1473 1467 1461 1454 1447 1439 1431 1427 1428 1428 1428 1429 1431 1435 1440 1444 1449 1453 1457 1461 1465 1468 1471 1474 1478 1482 1485 1488
1404 1404 1407 1410 1419 1423 1426 1432 1447 1449 1446 1442 1457 1449 1476 1473 1472 1470 1466 1459 1452 1445 1436 1430 1430 1429 1431 1432 1433 1436 1440 1443 1446 1450 1452 1455 1459 1462 1465 1468 1470 1472 1474 1478
1413 1402 1414 1417 1412 1410 1418 1423 1430 1438 1439 1441 1446 1446 1473 1473 1472 1470 1467 1463 1456 1446 1441 1437 1434 1432 1433 1435 1436 1436 1437 1441 1443 1446 1448 1451 1454 1457 1459 1460 1461 1462 1462 1465
1437 1419 1425 1422 1422 1418 1413 1414 1419 1433 1445 1436 1447 1470 1473 1471 1471 1469 1465 1460 1455 1451 1446 1443 1439 1434 1433 1434 1436 1437 1439 1440 1442 1442 1444 1446 1448 1450 1450 1450 1450 1452 1455 1459
1445 1438 1430 1428 1422 1421 1416 1422 1417 1416 1426 1428 1444 1461 1470 1473 1472 1471 1468 1464 1460 1456 1451 1447 1443 1438 1435 1434 1435 1437 1438 1439 1439 1440 1442 1442 1443 1444 1444 1442 1443 1446 1450 1455
1446 1444 1437 1429 1444 1441 1429 1423 1432 1426 1419 1416 1437 1472 1477 1480 1481 1479 1475 1471 1466 1460 1456 1452 1447 1443 1439 1436 1435 1435 1436 1437 1437 1437 1438 1439 1439 1439 1440 1439 1441 1444 1448 1452
1446 1448 1444 1446 1450 1449 1448 1449 1443 1432 1425 1434 1435 1477 1486 1487 1486 1484 1479 1474 1468 1464 1459 1454 1450 1446 1441 1438 1436 1434 1434 1434 1434 1434 1435 1435 1436 1436 1437 1438 1440 1442 1446 1450
1449 1453 1450 1446 1448 1450 1458 1460 1449 1449 1442 1458 1444 1476 1490 1490 1486 1484 1479 1474 1468 1463 1456 1452 1450 1446 1443 1441 1438 1436 1434 1434 1433 1433 1432 1433 1433 1433 1435 1438 1440 1442 1447 1451
1448 1452 1456 1456 1466 1466 1474 1469 1458 1460 1457 1466 1478 1478 1491 1491 1489 1482 1476 1473 1467 1462 1457 1455 1451 1447 1444 1443 1440 1437 1434 1433 1432 1431 1431 1431 1431 1431 1433 1438 1441 1442 1446 1450
1459 1469 1462 1473 1477 1477 1484 1479 1482 1488 1485 1480 1485 1491 1502 1498 1495 1488 1481 1472 1466 1460 1454 1452 1451 1448 1445 1442 1440 1438 1435 1433 1431 1430 1429 1430 1429 1431 1432 1436 1439 1443 1446 1449
1465 1474 1465 1475 1480 1482 1493 1496 1497 1496 1492 1485 1483 1489 1501 1501 1496 1486 1478 1471 1463 1460 1456 1453 1451 1448 1445 1442 1441 1438 1435 1433 1431 1429 1429 1428 1428 1429 1431 1433 1438 1441 1444 1446
1473 1477 1472 1474 1479 1474 1496 1512 1507 1504 1509 1499 1506 1511 1499 1492 1491 1485 1479 1472 1469 1463 1458 1452 1448 1446 1444 1442 1440 1438 1435 1432 1431 1430 1429 1427 1427 1428 1429 1432 1436 1439 1440 1444
1484 1479 1475 1475 1479 1523 1515 1515 1512 1508 1510 1511 1513 1509 1507 1503 1493 1484 1478 1471 1463 1457 1451 1448 1446 1442 1441 1441 1440 1438 1436 1433 1431 1430 1429 1428 1428 1427 1428 1430 1433 1436 1438 1440
1487 1490 1496 1499 1505 1515 1513 1515 1518 1520 1514 1516 1514 1506 1500 1493 1486 1476 1473 1467 1462 1456 1452 1446 1442 1438 1436 1437 1438 1437 1435 1433 1431 1430 1429 1428 1428 1428 1428 1429 1431 1433 1435 1440
1492 1491 1496 1495 1515 1520 1526 1518 1514 1509 1513 1517 1517 1511 1504 1498 1494 1477 1459 1460 1457 1454 1448 1439 1435 1433 1431 1433 1435 1434 1433 1431 1430 1428 1427 1428 1429 1428 1428 1428 1430 1432 1435 1436
1509 1510 1510 1503 1515 1522 1527 1517 1510 1520 1525 1519 1516 1513 1511 1505 1500 1481 1465 1459 1459 1452 1441 1434 1429 1425 1424 1428 1431 1430 1431 1429 1430 1429 1428 1427 1427 1427 1427 1428 1429 1432 1434 1436
1529 1534 1519 1515 1524 1539 1526 1520 1526 1531 1524 1520 1515 1510 1503 1495 1488 1481 1473 1464 1453 1443 1431 1425 1422 1420 1420 1422 1425 1427 1427 1427 1427 1426 1425 1425 1426 1427 1428 1429 1429 1431 1433 1436
1536 1537 1539 1536 1533 1535 1532 1531 1530 1526 1521 1514 1508 1502 1497 1491 1486 1482 1475 1465 1452 1442 1432 1425 1419 1419 1416 1418 1420 1422 1423 1423 1425 1426 1421 1425 1426 1427 1428 1429 1431 1432 1433 1435
1534 1533 1536 1535 1532 1532 1529 1529 1527 1523 1518 1512 1507 1501 1496 1490 1482 1474 1466 1458 1449 1441 1435 1428 1420 1416 1417 1419 1418 1418 1417 1419 1423 1423 1417 1423 1424 1426 1428 1429 1431 1432 1433 1434
1543 1538 1539 1537 1534 1528 1528 1528 1525 1519 1515 1510 1505 1501 1496 1490 1484 1478 1473 1467 1460 1450 1439 1432 1423 1418 1414 1415 1414 1411 1412 1416 1418 1420 1415 1420 1423 1425 1427 1427 1429 1431 1434 1436
1543 1543 1545 1544 1538 1537 1530 1527 1523 1519 1515 1510 1504 1498 1494 1490 1484 1476 1469 1463 1457 1451 1443 1435 1428 1422 1416 1415 1412 1409 1409 1411 1414 1416 1408 1418 1423 1426 1425 1425 1429 1432 1434 1436